Location: Abraham Lincoln Continuation High School
(33.9711°N, 117.3662°W)
Time: 19:12:36
(UTC+00:00)

MetOp-A - Visible Passes

Search period start: 26 January 2021 00:00
Search period end: 05 February 2021 00:00
Orbit: 819 x 821 km, 98.5° (Epoch: 26 January)

Date Brightness Start Highest point End Pass type
(mag) Time Alt. Az. Time Alt. Az. Time Alt. Az.
26 Jan 6.4 03:26:42 12° N 03:26:42 12° N 03:27:01 10° N visible
27 Jan 6.2 03:05:31 12° N 03:05:31 12° N 03:05:57 10° N visible
28 Jan 6.2 02:44:20 11° NNE 02:44:20 11° NNE 02:44:37 10° NNE visible
29 Jan 6.5 04:04:29 13° NNW 04:04:29 13° NNW 04:05:05 10° NNW visible
30 Jan 6.2 03:43:18 17° N 03:43:18 17° N 03:44:25 10° N visible
31 Jan 5.9 03:22:06 18° N 03:22:06 18° N 03:23:31 10° N visible
01 Feb 5.8 03:00:54 18° NNE 03:00:54 18° NNE 03:02:26 10° N visible
01 Feb 6.9 04:42:15 11° NW 04:42:15 11° NW 04:42:25 10° NW visible
02 Feb 5.9 02:39:41 15° NE 02:39:41 15° NE 02:41:02 10° NNE visible
02 Feb 6.4 04:21:02 16° NNW 04:21:02 16° NNW 04:22:09 10° NNW visible
03 Feb 6.0 02:18:30 11° NE 02:18:30 11° NE 02:18:55 10° NE visible
03 Feb 6.0 03:59:51 22° NNW 03:59:51 22° NNW 04:01:39 10° NNW visible
04 Feb 5.5 03:38:39 26° N 03:38:39 26° N 03:40:56 10° N visible
